Location: Aiyekoto
(8.4333°N, 4.3667°E)
Time: 13:11:09
(UTC+00:00)

ADEOS - Pass Details

Date: 02 October 2020
Orbit: 792 x 794 km, 98.9° (Epoch: 27 October)

Event Time Altitude Azimuth Distance (km) Brightness Sun altitude
Rises 03:58:44 0° 8° (N) 3,279 6.9 -23.6°
Reaches altitude 10° 04:01:03 10° 6° (N) 2,351 6.1 -23.0°
Maximum altitude 04:06:13 70° 283° (WNW) 841 3.4 -21.7°
Drops below altitude 10° 04:11:23 10° 200° (SSW) 2,355 5.8 -20.4°
Sets 04:13:43 0° 198° (SSW) 3,285 6.6 -19.8°
